Helicity
38 26 -1 -3 -11 27 20 4 26 0 -25 1 54 25 -10 7 12 23 -20 -34 -48 -56 -67 -45 -26 -14 -2 2 6 4 3 0 11 9 10 7 13 19 10 8 19 18 18 14 25 26 13 7 0
45 18 6 -15 7 -2 -9 28 37 -8 -23 -31 72 9 12 4 0 87 34 -47 -30 -48 -69 -48 -20 -3 2 7 -1 2 7 0 13 10 10 5 2 6 3 5 15 25 20 17 26 16 7 -1 -11
55 16 -12 40 -4 9 -7 53 67 50 42 5 59 88 21 18 46 173 -37 -12 -36 -54 -62 -42 -13 2 7 6 -3 5 9 5 7 3 -2 1 1 3 3 -8 -4 10 14 22 16 6 -4 -16 -22
40 -4 10 13 31 -22 -17 -5 22 15 1 67 63 86 33 20 103 16 5 -9 -34 -52 -65 -29 -7 3 -1 0 0 12 3 -2 -5 -2 3 8 -8 -8 -8 -6 -4 3 7 7 -1 -2 -7 -19 3
8 -5 13 1 1 3 2 -15 0 2 37 39 43 57 66 67 21 82 15 -36 -17 -53 -62 -34 -10 -6 -10 -6 -5 0 -8 -6 12 15 2 6 4 -2 1 -1 3 8 6 3 -2 5 10 15 13
12 11 -17 17 33 -24 17 33 10 -9 12 5 65 107 79 57 101 33 -14 -36 -37 -33 -54 -35 -11 -10 -11 -7 -9 -5 -10 12 10 11 10 1 -3 -2 -3 -2 8 18 8 -4 -1 0 1 15 22
19 19 16 -9 -11 -67 -19 60 14 -1 2 13 100 95 83 31 15 14 -11 -23 -36 -56 -40 -37 -43 -21 -9 -10 -5 -9 1 7 5 7 2 -1 2 -1 -2 7 17 18 9 3 -1 1 8 21 32
37 34 26 3 -2 -11 26 -19 6 -19 4 96 47 -15 55 -16 -6 -9 -10 -25 -36 -57 -46 -40 -46 -29 -35 -1 -3 4 8 8 0 0 0 -1 6 9 3 7 14 12 16 21 23 22 21 18 32
39 44 36 24 19 -18 13 6 1 3 17 3 -16 17 55 67 12 28 16 -30 -47 -58 -55 -47 -46 -43 0 20 22 7 8 7 7 1 -1 4 11 17 10 22 13 21 24 25 22 16 21 29 28
39 45 14 8 -1 6 26 -22 9 13 33 14 28 140 232 144 87 84 66 34 -13 -29 -57 -44 -36 -33 24 29 21 15 24 21 18 12 8 7 8 17 23 20 20 22 14 10 7 7 12 23 36
26 27 30 -18 -27 -49 56 30 -27 16 39 11 134 239 348 197 112 73 53 22 -19 -26 -39 -37 -30 -8 16 20 14 10 16 10 14 11 11 8 8 13 12 16 7 13 11 14 23 26 25 4 20
34 -32 24 6 26 -43 -39 -59 -38 55 -31 27 220 333 400 251 139 73 58 0 -36 -35 -31 -39 -24 -1 10 19 6 -9 5 10 12 6 4 5 4 1 11 11 16 5 10 11 27 25 23 11 23
20 28 46 70 77 52 58 26 33 28 -22 77 257 335 352 247 110 31 16 -28 -39 -38 -33 -33 -18 4 9 9 -1 -19 -13 -7 5 5 -2 -10 -1 -2 1 7 8 4 5 -1 17 29 19 18 10
-13 62 55 45 78 104 197 117 18 -7 129 158 245 315 279 216 141 31 11 -3 -36 -41 -36 -25 -19 2 11 -4 -14 -24 -18 2 11 0 3 -3 -3 10 14 13 18 8 2 9 11 28 26 25 8
7 111 22 55 48 31 35 31 8 29 158 171 201 255 200 148 91 57 39 24 -13 -29 -37 -29 -25 -5 -1 -12 -21 -23 -18 -5 2 4 18 4 5 17 13 12 17 12 10 -1 10 22 22 25 -2
-37 -15 20 55 33 53 59 88 83 134 132 172 232 219 171 98 69 7 -11 7 -9 -30 -40 -37 -14 -14 -14 -20 -26 -27 -16 -5 8 7 6 7 10 13 11 14 26 11 5 5 -6 7 2 26 26
86 78 52 86 28 68 20 41 36 143 169 189 240 240 169 75 39 -7 -24 -11 12 -7 -32 -38 -19 -12 -29 -34 -29 -26 -18 -10 4 -3 -3 8 25 17 8 15 16 14 2 -1 4 1 12 25 12
131 116 130 70 66 86 36 54 46 93 141 186 193 232 179 108 27 -5 -38 -12 -21 -16 -28 -38 -17 -8 -22 -17 -19 -27 -27 -22 -6 1 -11 -6 23 21 6 5 17 20 7 1 -2 6 5 7 8
173 107 114 108 109 106 64 83 32 96 68 84 140 190 163 180 77 1 -32 -30 -12 -21 -32 -35 -34 -17 -13 12 8 -2 -8 -17 -9 -30 -23 -16 13 22 12 19 20 17 22 9 1 0 3 22 13
131 141 114 99 90 93 72 40 68 134 177 225 247 196 133 94 120 30 6 -32 -12 3 -9 -27 -26 -21 -18 8 26 28 7 5 3 -36 -26 -14 22 18 20 33 36 29 14 20 13 -1 -7 17 37
68 81 97 88 133 115 72 62 62 49 106 134 116 125 124 146 153 112 6 12 1 -2 -5 -10 -17 5 -21 16 66 66 64 42 20 14 -6 -4 23 34 32 33 17 23 15 28 24 17 0 15 26
80 76 47 66 104 136 144 21 86 109 81 98 121 126 104 119 102 89 59 5 3 0 8 -1 8 35 -6 -4 -7 -7 26 16 13 24 12 -5 7 26 25 26 13 15 11 28 29 24 5 5 29
71 67 61 57 63 49 156 146 22 59 72 24 75 101 97 121 129 110 73 69 24 18 -2 11 15 -3 4 8 14 9 1 -15 18 22 13 2 -1 6 13 13 4 5 4 10 18 16 20 4 14
91 93 108 95 92 14 25 129 64 80 -46 -14 52 82 84 105 130 126 55 12 12 -1 25 12 12 -17 32 36 25 23 30 33 35 34 20 27 20 5 4 8 6 -4 -3 -2 6 8 16 21 0
107 129 153 154 140 -33 17 73 91 55 31 25 50 64 100 148 126 80 104 52 35 32 -4 8 -9 -8 -4 19 33 45 75 76 66 60 62 58 38 23 12 1 9 11 7 -10 -11 -2 10 16 16
139 155 294 240 179 36 14 77 93 -59 64 3 73 101 166 189 152 124 105 118 69 97 62 33 25 2 90 59 52 74 88 81 66 54 52 48 63 30 -13 -2 8 10 -3 -19 -18 -18 -4 4 4
174 168 167 151 115 31 90 95 150 -2 45 13 29 146 129 160 209 178 124 130 107 105 150 112 62 40 146 124 138 89 86 99 64 57 33 29 27 6 -17 -5 12 10 9 2 -11 -17 -15 -12 1
75 98 193 222 138 47 104 185 92 126 41 50 39 128 133 200 219 209 238 137 136 148 151 163 141 132 181 218 191 186 169 125 85 64 35 17 6 -18 -35 -21 -4 6 16 12 1 -17 -35 -32 -22
135 168 164 212 213 104 56 91 139 76 75 54 1 61 98 175 200 203 137 179 183 116 163 196 183 173 211 218 219 187 191 169 168 80 49 34 1 -4 -13 -21 -12 7 18 30 25 -7 -22 -25 -27
257 161 181 194 178 136 57 38 69 92 60 77 -3 45 71 170 206 180 99 145 260 263 240 243 222 194 192 228 247 223 216 224 177 128 61 33 25 17 15 3 -16 -11 6 25 34 17 -8 -3 -12
Wind_Speed
42 35 28 25 27 19 25 32 27 20 4 46 47 47 45 35 39 34 58 57 58 58 59 58 55 48 46 44 39 37 36 38 49 52 54 56 56 54 52 49 45 41 37 38 39 38 36 35 36
41 43 34 26 29 27 31 37 35 12 10 36 40 32 39 37 38 41 64 59 60 58 57 60 52 48 47 40 39 32 22 29 35 46 56 55 55 55 53 48 43 41 40 41 41 39 37 35 36
32 35 29 22 30 25 33 28 38 32 38 36 22 20 33 31 33 54 62 58 57 54 53 59 51 48 47 49 49 30 20 14 17 24 55 55 54 36 32 49 49 45 46 45 45 43 40 35 22
25 28 16 28 31 31 35 27 42 38 27 32 24 18 29 37 47 60 62 56 57 55 57 57 54 49 51 56 52 35 50 55 52 54 55 52 54 54 54 52 50 49 48 49 50 49 45 31 17
23 31 34 31 28 20 30 25 27 20 21 22 35 19 21 38 48 59 57 55 57 57 58 57 53 50 52 55 50 49 55 51 9 29 51 46 55 56 54 52 51 51 51 52 52 51 48 31 27
23 29 32 32 28 25 26 28 37 14 21 25 17 17 20 43 63 60 53 53 54 55 58 56 50 52 52 52 51 51 57 24 44 47 42 46 49 55 53 51 51 52 53 53 51 49 46 41 36
29 29 33 31 23 25 22 32 19 16 30 34 22 18 16 45 68 59 54 50 50 49 55 52 49 57 46 48 50 50 55 43 43 43 42 46 47 50 52 51 52 53 54 53 48 48 48 42 35
26 27 31 30 22 19 32 25 30 15 23 19 22 19 43 54 74 58 52 51 51 49 53 54 51 56 40 59 60 56 52 46 46 41 46 46 47 49 50 48 50 51 51 50 49 47 46 46 37
27 32 31 27 16 18 24 19 14 19 22 13 13 23 39 63 67 62 55 55 54 51 54 59 56 53 59 55 54 53 49 47 46 48 46 41 38 36 39 42 44 44 43 43 41 43 45 44 42
32 31 29 32 27 5 12 17 14 20 14 19 15 27 47 66 65 69 67 63 60 59 61 64 63 62 59 55 53 51 49 47 48 48 47 45 45 36 36 38 40 38 35 33 35 36 40 40 40
30 33 32 18 16 27 14 19 22 34 37 9 26 37 51 57 62 70 68 65 64 62 65 70 67 66 62 58 55 53 51 50 47 47 47 46 45 40 38 37 36 35 34 34 26 27 31 35 38
39 42 25 32 34 18 11 26 31 33 17 14 30 46 56 56 66 74 71 68 66 64 68 72 70 68 63 58 57 56 53 51 49 48 46 47 44 41 39 37 36 36 34 30 22 26 26 28 35
51 44 43 50 46 45 43 17 18 27 23 22 34 48 57 53 69 78 70 67 68 66 71 75 73 70 66 61 58 56 53 53 51 49 46 45 42 42 39 37 34 32 30 27 21 28 27 21 27
31 65 55 53 55 49 48 40 13 19 19 25 38 52 57 57 66 80 76 72 70 71 74 76 75 71 67 65 61 58 55 52 52 48 45 44 41 40 39 37 34 31 33 30 27 30 30 25 28
54 51 51 52 51 41 31 24 28 12 20 30 38 54 57 61 66 72 72 72 70 75 76 76 76 73 71 68 63 60 57 53 52 48 46 42 40 39 37 37 36 33 35 35 30 31 31 34 31
27 29 63 40 38 42 21 49 18 11 17 28 39 48 57 62 65 78 79 71 67 69 77 77 77 75 73 70 66 62 58 54 51 47 44 41 39 38 37 38 37 36 37 34 27 30 35 37 33
36 40 26 57 19 33 18 42 6 7 17 24 34 44 52 65 68 78 79 75 67 68 72 78 80 78 76 72 68 64 60 55 51 47 46 43 39 38 37 35 36 37 34 33 29 29 36 40 37
42 37 42 45 39 30 28 42 3 4 13 25 31 44 52 65 71 69 75 83 67 67 71 76 82 80 78 73 68 63 59 56 52 49 49 47 42 39 38 38 37 37 36 37 33 31 27 41 41
49 54 58 57 45 38 50 57 47 9 9 20 27 44 54 62 68 63 65 82 79 68 76 75 80 84 81 76 73 68 64 57 53 52 48 47 45 41 40 38 38 37 37 38 37 36 34 37 43
73 64 65 59 47 52 55 74 55 19 22 32 30 34 50 53 60 67 68 69 86 77 74 83 83 86 84 79 72 65 66 60 55 52 49 48 45 43 41 40 38 38 39 39 36 36 39 39 40
80 82 67 58 51 66 54 70 56 42 35 21 25 30 28 46 55 67 70 78 90 85 78 82 87 89 86 81 67 58 55 55 58 55 52 50 48 44 42 40 38 38 37 39 37 39 40 43 41
84 78 87 74 63 66 58 88 73 46 28 46 27 29 28 36 54 65 64 77 88 92 90 83 92 92 89 85 82 78 74 70 66 61 56 51 48 45 43 41 39 37 37 39 39 40 41 43 43
81 66 82 83 76 77 76 76 81 44 38 50 34 33 33 35 55 63 66 74 89 94 93 92 94 93 93 89 86 81 74 68 66 64 60 56 52 48 44 42 40 38 39 39 39 40 41 41 41
65 57 67 74 77 114 94 87 91 72 67 79 33 32 36 35 45 57 69 67 83 94 93 95 95 86 95 93 85 79 75 71 69 66 64 61 56 52 48 45 41 39 39 39 39 40 40 41 40
64 70 68 77 89 117 76 90 94 85 80 87 63 40 34 36 46 64 65 70 76 88 94 95 92 89 66 72 77 75 77 71 68 63 60 62 61 57 52 48 43 38 38 38 37 38 40 40 39
79 72 75 84 83 101 71 95 86 105 74 90 89 82 51 43 41 69 71 73 77 89 93 90 88 86 48 55 75 79 64 69 71 68 65 64 61 57 54 49 44 39 36 37 35 34 38 38 38
82 98 77 77 66 82 91 81 70 78 90 93 90 67 32 34 38 63 74 79 81 83 85 84 80 82 42 56 40 89 73 48 69 76 71 68 62 59 54 47 43 38 36 36 33 31 34 38 37
99 70 90 86 103 98 76 88 88 82 79 93 98 90 36 29 40 41 42 83 82 79 79 89 86 66 44 44 60 53 43 49 59 78 72 69 64 58 53 42 39 34 32 33 31 30 32 37 40
104 98 90 90 89 102 89 82 64 75 87 87 96 88 43 31 32 37 76 86 74 77 59 54 69 55 54 57 56 59 56 52 31 81 76 66 58 52 47 36 27 27 28 29 27 31 32 38 43
89 96 93 97 107 100 78 96 47 67 73 86 99 89 78 29 37 46 83 87 47 55 43 48 42 56 51 43 48 43 51 42 60 88 79 60 56 44 39 33 30 21 24 19 25 34 33 41 43
Wind_Direction
107 90 73 94 109 336 317 272 284 47 31 168 119 141 129 149 136 124 140 123 120 119 119 116 110 98 93 87 79 74 71 75 89 95 100 114 117 107 102 90 73 60 47 45 46 40 37 43 48
104 109 109 126 99 87 187 267 259 31 351 114 103 82 155 135 136 103 127 124 122 119 118 120 109 100 96 82 80 71 60 66 69 84 109 127 118 114 103 86 70 58 54 54 52 46 43 42 47
95 116 174 27 118 164 214 253 219 227 207 101 70 254 187 118 92 118 131 121 120 117 114 120 108 99 97 96 96 69 57 48 45 50 131 125 127 59 49 87 86 71 78 77 67 60 53 43 16
66 297 188 133 155 63 88 239 212 237 260 237 71 346 240 180 112 130 123 121 120 119 120 118 113 103 105 110 103 76 96 106 99 101 129 136 124 104 98 103 109 92 90 86 83 80 68 49 210
331 300 302 328 26 325 278 290 270 279 269 260 227 310 19 95 113 119 120 121 122 121 123 120 115 107 110 113 102 99 109 97 188 185 144 152 129 115 104 113 100 95 83 95 99 108 127 168 178
332 313 310 314 299 43 286 265 220 201 266 245 320 17 2 110 122 122 119 120 121 121 124 123 112 114 114 110 107 104 119 62 165 160 166 157 144 114 118 114 105 92 84 101 111 122 135 148 157
306 312 302 318 337 57 298 260 313 322 249 227 64 352 37 113 131 122 121 119 120 120 123 119 115 127 107 107 107 104 150 174 172 167 167 156 149 137 121 114 104 98 102 105 121 123 131 143 152
303 318 300 316 332 45 251 301 246 349 291 48 65 41 117 128 138 124 121 121 122 123 126 126 121 138 103 152 137 159 166 173 169 173 162 158 150 138 130 130 118 113 115 113 114 128 133 129 148
294 301 303 331 356 29 312 327 333 332 29 342 359 57 115 130 132 130 127 128 129 129 132 139 131 126 158 174 171 170 174 173 171 166 165 169 168 167 158 148 132 127 133 127 133 132 130 135 141
277 294 306 227 114 36 6 350 15 291 45 292 3 71 120 134 137 139 141 139 138 139 144 150 147 144 176 178 178 175 175 173 169 166 164 161 150 168 165 159 146 142 152 155 145 146 136 139 145
278 289 281 305 10 76 42 316 69 106 143 48 102 112 129 136 141 146 146 146 145 143 151 163 157 164 177 180 178 176 173 171 173 168 164 158 150 156 163 161 159 152 159 149 179 176 164 147 147
263 258 270 250 227 29 18 55 103 120 315 6 120 130 136 141 148 153 152 151 150 149 156 167 166 172 179 184 179 173 178 178 172 166 166 155 146 148 150 154 170 152 158 170 224 200 191 172 149
253 255 248 225 223 236 249 125 173 129 294 40 112 134 142 141 151 164 155 155 155 155 164 171 173 180 183 185 183 177 181 172 168 166 166 152 141 139 142 150 160 175 188 180 233 200 198 231 183
274 243 247 242 228 236 220 186 58 250 69 85 117 138 144 146 151 167 164 162 161 163 170 175 176 185 188 184 183 178 177 176 172 169 163 157 139 145 149 151 154 164 166 186 184 184 187 199 182
254 249 253 248 243 264 282 281 127 46 82 101 121 139 146 151 155 161 162 162 161 170 174 174 178 190 189 186 187 185 179 177 171 171 166 161 147 155 161 153 135 144 149 167 179 181 181 168 176
264 265 230 254 259 260 275 245 298 103 97 106 125 138 150 157 160 175 175 165 162 164 175 176 187 191 192 190 188 187 188 185 182 180 176 168 157 152 154 145 133 138 142 176 208 187 171 166 177
262 255 246 247 266 271 271 265 38 137 119 123 131 140 151 161 167 178 178 173 164 166 168 177 188 193 188 191 191 189 189 190 191 190 183 174 165 157 162 156 147 141 151 175 201 200 170 165 161
253 251 256 251 261 263 271 248 15 202 136 141 141 146 155 167 174 172 177 189 170 169 171 175 189 198 195 199 201 199 196 199 198 192 180 175 169 164 159 151 146 146 152 162 173 180 201 156 147
259 255 249 251 259 262 257 254 253 238 153 151 151 155 163 168 173 172 172 187 183 174 178 176 180 196 197 200 200 202 196 198 201 187 175 170 167 168 161 159 148 144 149 156 163 170 173 168 149
249 252 249 253 256 256 258 242 253 239 190 175 168 165 168 166 170 176 176 176 191 181 179 185 186 194 195 206 213 214 201 200 201 188 183 172 163 164 161 159 153 143 143 150 159 166 166 166 166
248 246 248 251 259 252 261 251 254 262 263 219 238 244 176 170 172 178 180 184 199 189 183 184 191 202 194 208 221 225 226 225 211 205 200 176 167 167 167 164 164 155 149 155 158 161 160 144 156
249 246 244 250 257 252 254 243 249 258 211 188 206 218 220 177 175 179 179 186 191 200 196 187 198 207 198 195 199 199 207 201 202 195 197 178 173 172 176 171 167 169 166 154 155 156 158 151 144
250 253 246 248 254 255 251 249 244 252 238 189 200 206 213 186 176 179 181 185 195 205 204 199 201 199 201 199 201 198 196 197 211 202 194 192 187 182 178 174 166 166 162 157 157 157 160 160 154
251 256 249 247 251 243 244 245 242 246 202 203 206 224 228 210 181 180 185 183 193 205 213 205 200 191 208 205 194 193 193 195 201 205 198 197 195 190 184 179 172 168 169 166 155 158 161 164 167
244 239 246 243 242 240 249 247 239 237 237 217 189 192 204 209 190 185 182 184 187 192 197 200 196 193 182 186 188 190 194 192 193 192 193 195 198 198 190 182 175 168 167 165 154 157 163 163 168
238 235 238 241 244 245 250 246 243 223 239 225 221 205 247 242 194 190 189 187 189 194 195 192 191 191 187 184 189 193 186 191 196 197 199 199 193 192 191 183 178 172 166 164 158 157 166 168 173
241 236 241 250 256 251 247 252 256 238 236 228 228 247 240 218 224 189 190 192 191 192 191 189 188 190 197 188 222 209 191 184 194 205 204 203 195 192 190 183 178 174 171 169 163 161 167 172 174
238 242 235 239 240 243 251 246 245 240 239 232 233 230 245 227 237 233 230 194 192 190 189 195 192 188 201 228 238 240 239 187 189 206 200 200 196 190 188 179 177 173 172 173 170 169 171 177 182
232 235 237 239 243 242 248 251 249 243 236 235 228 236 248 217 207 212 192 194 189 190 185 190 187 190 234 237 238 241 243 246 226 206 202 194 189 186 184 179 173 173 174 175 175 178 176 182 191
237 236 234 235 235 242 250 245 260 243 238 234 228 227 235 199 190 191 195 193 190 185 190 191 200 188 192 223 233 229 242 240 233 224 203 190 188 183 183 182 181 180 178 174 175 182 180 187 192